Regional Weather Roundup
Issued by NWS

Home | Current Version | Previous Version | Graphics & Text | Print | Product List | Glossary On
Versions: 1 2 3 4 5 6 7 8 9 10 11 12 13 14 15 16 17 18 19 20 21 22 23 24 25 26 27 28 29 30 31 32 33 34 35 36 37 38 39 40 41 42 43 44 45 46 47 48 49 50
000
ASUS43 KMKX 292021
RWRWI

WISCONSIN REGIONAL WEATHER ROUNDUP
NATIONAL WEATHER SERVICE MILWAUKEE/SULLIVAN WI
300 PM CDT MON JUN 29 2015

NOTE: "FAIR" INDICATES FEW OR NO CLOUDS BELOW 12,000 FEET WITH NO
SIGNIFICANT WEATHER AND/OR OBSTRUCTIONS TO VISIBILITY.

WIZ001-002-006>008-014>016-023>028-292100-
NORTHWEST WISCONSIN

CITY           SKY/WX    TMP DP  RH WIND       PRES   REMARKS
SUPERIOR ARPT  PTSUNNY   69  63  81 SW9       29.76S
ASHLAND        CLOUDY    67  62  84 W6        29.77R
HAYWARD        LGT RAIN  65  59  81 CALM      29.78F
SIREN          PTSUNNY   73  58  59 NE6       29.79R
CUMBERLAND     TSTM      61  57  88 NW3       29.78F VSB 3/4
RICE LAKE      TSTM      65  60  85 N7        29.82R
CHETEK         RAIN      67  61  80 CALM      29.78R
LADYSMITH      TSTM      63  58  85 N5        29.85R
EAU CLAIRE     PTSUNNY   73  63  70 S7        29.75F
MENOMONIE      MOSUNNY   82  61  49 W13       29.77F HX  82
NEW RICHMOND   MOSUNNY   79  63  57 W12       29.79F HX  81
OSCEOLA        MOSUNNY   81  63  53 W10       29.80F HX  82
$$

WIZ003>005-009-010-017-018-292100-
NORTH CENTRAL WISCONSIN

CITY           SKY/WX    TMP DP  RH WIND       PRES   REMARKS
MANITOWISH WTR TSTM      59  59 100 CALM      29.80S
ARBOR VITAE    PTSUNNY   72  58  62 NW15G25   29.81R THUNDER
WOODRUFF       PTSUNNY   72  58  62 NW15G25   29.81R THUNDER
RHINELANDER    MOSUNNY   76  58  53 SW7       29.79R
EAGLE RIVER    MOSUNNY   74  56  52 W8        29.77R
LAND O LAKES   PTSUNNY   73  59  62 W3        29.78R
PHILLIPS       TSTM      59  58  96 CALM      29.81S
TOMAHAWK       MOSUNNY   75  58  55 W5        29.78S
MEDFORD        PTSUNNY   75  60  59 W12       29.80R
MERRILL        MOSUNNY   76  61  60 W9        29.78F
$$

WIZ029-030-035-036-043>047-292100-
CENTRAL WISCONSIN

CITY           SKY/WX    TMP DP  RH WIND       PRES   REMARKS
WAUSAU         MOSUNNY   79  58  48 SW8       29.76F HX  80
MOSINEE        MOSUNNY   77  61  57 W8        29.79F
MARSHFIELD     NOT AVBL
STEVENS POINT  SUNNY     76  57  52 W7        29.78F
WAUPACA        PTSUNNY   76  61  60 SW6       29.78S
WAUTOMA        MOSUNNY   78  61  55 CALM      29.78F
WISC RAPIDS    SUNNY     78  57  48 VRB5      29.79F
CAMP DOUGLAS   MOSUNNY   77  68  73 NW1       29.79F
$$

WIZ011>013-019>022-031-037>040-048>050-292100-
NORTHEAST WISCONSIN

CITY           SKY/WX    TMP DP  RH WIND       PRES   REMARKS
ANTIGO         PTSUNNY   70  62  76 SE13      29.79F
SHAWANO        CLOUDY    75  58  54 SW3       29.77F
OCONTO         SUNNY     77  59  53 S10G16    29.76S
STURGEON BAY   SUNNY     75  55  50 S14       29.80S
GREEN BAY      PTSUNNY   77  59  53 S10G17    29.77F
MANITOWOC      SUNNY     74  59  59 MISG      29.80F
APPLETON       PTSUNNY   72  59  64 SW9       29.79F
CLINTONVILLE   RAIN     N/A N/A N/A SW3       29.78S
OSHKOSH        MOSUNNY   73  60  63 S10       29.79F
$$

WIZ032>034-041-042-053>061-292100-
SOUTHWEST WISCONSIN

CITY           SKY/WX    TMP DP  RH WIND       PRES   REMARKS
LA CROSSE      SUNNY     82  62  50 NW7       29.78F HX  83
SPARTA         MOSUNNY   77  58  52 CALM      29.80F
VIROQUA        PTSUNNY   76  61  60 NW5       29.82F
BOSCOBEL       MOSUNNY   82  64  54 VRB5      29.79F HX  83
PRAIRIE DU CHI MOSUNNY   79  60  52 NW6       29.79F HX  80
PLATTEVILLE    PTSUNNY   73  65  74 NW3       29.81F
$$

WIZ056-057-062-063-064-067-068-292100-
SOUTH CENTRAL WISCONSIN

CITY           SKY/WX    TMP DP  RH WIND       PRES   REMARKS
REEDSBURG      MOSUNNY   76  62  61 N6        29.79F
BARABOO/DELLS  SUNNY     77  55  46 NW8       29.79F
LONE ROCK      MOSUNNY   79  61  53 NW10      29.79F HX  80
MINERAL POINT  CLOUDY    75  61  60 W7        29.82S
MADISON        PTSUNNY   75  64  68 E7        29.79F
MIDDLETON      MOSUNNY   80  57  46 NW8       29.80S HX  80
WATERTOWN      PTSUNNY   70  69  96 CALM      29.81F
MONROE         PTSUNNY   75  63  64 NW7       29.80F
JANESVILLE     PTSUNNY   79  61  53 W8        29.79F HX  80
$$

WIZ051-052-058>065-066-070>072-292100-
SOUTHEAST WISCONSIN

CITY           SKY/WX    TMP DP  RH WIND       PRES   REMARKS
MILWAUKEE      PTSUNNY   72  59  63 SE10      29.81F
WAUKESHA       PTSUNNY   70  57  64 S6        29.82S
MILWAUKEE/TIMM PTSUNNY   75  54  46 SE9       29.81F
RACINE         MOSUNNY   72  61  68 SE8       29.83S
BURLINGTON     PTSUNNY   69  60  74 E8        29.81S
KENOSHA        MOSUNNY   71  61  70 SE9       29.81F
FOND DU LAC    MOSUNNY   74  64  71 SW7       29.79F
SHEBOYGAN      SUNNY     75  61  61 SE8       29.79F
WEST BEND      PTSUNNY   75  55  50 SE6       29.80S
JUNEAU         PTSUNNY   71  65  80 SE8       29.82S
$$

LSZ147-162-292100-
LAKE SUPERIOR

STATION/POSITION TIME  TEMP    WIND        PRES    WAVE
                       AIR SEA DIR/SP/G            HT/PER
                 (UTC) (F)     (DEG/KT/KT) (MB)    (FT/S)
W MID LAKE BUOY  1950   53 39  320/  6/  8 1007.5R   0
DEVILS ISLAND    2000   62     230/  5/  7 1007.5R
SAXON HARBOR     1920   65     200/  1/  7 1007.5S
$$

LMZ867-665-643>646-292100-
LAKE MICHIGAN

STATION/POSITION TIME  TEMP    WIND        PRES    WAVE
                       AIR SEA DIR/SP/G            HT/PER
                 (UTC) (F)     (DEG/KT/KT) (MB)    (FT/S)
CHAMBERS ISLAND  1900   75     140/  7/ 11 1008.5F
S GREEN BAY BUOY 2000   74 73  220/  6/  6 1009.4F
N MID LAKE BUOY  1950   56 52  200/  8/ 10 1008.5F   0
NORTHPORT PIER   1900   70     150/  8/ 11 1008.8F
ALGOMA LAKESHORE 1910             CALM       N/A
KEWAUNEE LAKESHO 2000   63     190/  9/ 10 1008.4F
SHEBOYGAN LAKESH 2000   61     150/  8/  9 1009.3F
PORT WASHINGTON  1900   67     130/  2/  5 1010.5S
ATWATER BUOY     2000   62 62  140/  6/  8 1011.0F
MILWAUKEE LAKESH 2000   62     100/  4/  4   N/A
KENOSHA   LAKESH 2000   66     140/  6/  6 1009.5F
$$

TC  - TEMPERATURE IN CELSIUS
VSB - VISIBILITY IN STATUTE MILES
WCI - WIND CHILL INDEX
HX  - HEAT INDEX




USA.gov is the U.S. government's official web portal to all federal, state and local government web resources and services.